sat.trackr.live / text

‹ back to catalog

2024-094A

NORAD 59805 · 2024-094A

PAYLOAD ACTIVE UNKNOWN

§ Identity

Operator
Country
PRC
Launch date
2024-05-20
Launch site
TAISC
Launch vehicle
Mass (kg)
RCS (m²)

External: N2YO · Heavens-Above · Gunter

§ Orbital elements

Epoch: 2026-09-22T22:30:51.242976Z

Period
94.93 min
Inclination
97.3785°
Eccentricity
0.0001491
Mean motion
15.16958001 rev/d
Perigee alt
514.0 km
Apogee alt
516.1 km
Semi-major
6,893.2 km
B*
2.2377e-4
RAAN
334.1806°
Arg perigee
161.8996°
Mean anomaly
198.2290°
Rev number
12,998

§ Raw data

2024-094A1 59805U 24094A   26265.93809309  .00004351  00000+0  22377-3 0  99942 59805  97.3785 334.1806 0001491 161.8996 198.2290 15.16958001129984

JSON: /api/v1/satellites/59805 · /tle

For live sub-satellite position, see the globe view (requires WebGL).

§ Visibility from observer

Set your observer location to see the next 7 days of passes ≥ 10°. The values pass through the URL so the page stays shareable.

No JS? Fill the form by hand. The geolocation button needs JavaScript.